Location: Waco, TX
(31.5480°N, 97.1670°W)
Time: 16:00:50
(UTC-05:00)

ISS - Pass Details

Date: 20 August 2019
Orbit: 410 x 421 km, 51.6° (Epoch: 22 August)

Event Time Altitude Azimuth Distance (km) Brightness Sun altitude
Rises 09:34:33 0° 267° (W) 2,344 -0.5 32.4°
Maximum altitude 09:39:12 13° 327° (NNW) 1,302 -1.5 33.4°
Drops below altitude 10° 09:40:56 10° 359° (N) 1,494 -0.9 33.8°
Sets 09:43:54 0° 27° (NNE) 2,362 0.3 34.4°
